Wind_Speed
16 16 16 16 17 19 21 22 25 28 32 35 37 36 35 34 32 31 32 33 35 38 40 42 44 45 46 47 48 50 51 52 54 54 54 54 55 55 54 55 55 55 56 57
16 17 18 17 19 21 23 24 27 31 34 36 36 36 37 35 32 33 33 35 37 40 42 43 45 46 46 47 47 49 49 49 50 51 52 52 52 52 52 53 54 55 55 55
15 17 17 18 23 24 26 28 30 32 34 37 40 41 40 38 37 37 36 36 37 37 39 41 42 42 44 45 46 46 46 45 45 46 48 49 50 50 51 52 53 53 53 53
15 16 17 23 25 26 27 30 31 33 35 38 39 41 42 41 40 38 39 39 38 38 37 38 39 40 41 41 40 42 43 44 45 46 46 47 48 49 49 50 50 50 51 50
13 15 19 23 24 24 26 29 30 31 33 35 36 37 38 38 37 37 36 36 36 37 37 38 39 39 40 41 41 42 43 44 46 46 47 47 48 48 48 49 49 48 48 48
14 16 20 24 24 24 25 28 28 29 30 30 31 33 34 34 34 33 33 34 34 35 37 38 38 39 39 40 41 42 43 44 45 46 46 47 47 47 47 47 47 46 46 45
16 17 20 21 23 23 24 25 25 25 26 27 28 27 28 29 29 29 30 30 32 33 34 35 36 38 39 39 40 41 42 43 44 44 45 45 45 45 45 44 44 43 42 41
17 17 19 18 19 21 22 23 23 23 23 23 23 23 23 25 26 27 28 29 30 31 32 33 35 36 37 38 39 40 41 42 42 43 43 43 42 42 41 40 39 38 37 36
18 18 18 17 17 18 19 20 20 21 21 21 21 21 22 23 24 25 27 28 29 30 31 32 33 34 36 37 38 39 40 40 41 41 40 40 39 38 37 36 34 33 32 31
18 18 17 16 17 17 17 17 17 18 19 19 20 20 21 22 23 23 24 25 26 28 29 30 31 33 34 35 36 37 38 38 38 38 37 36 34 33 31 29 28 27 25 24
18 17 17 16 16 16 16 16 17 18 18 18 18 19 19 20 20 21 22 23 24 25 26 27 29 30 31 33 34 35 36 36 35 34 32 30 27 25 23 21 20 19 17 16
17 17 17 16 16 16 16 16 17 17 17 17 17 17 17 17 18 19 20 20 22 23 24 25 26 28 30 32 33 33 33 31 29 27 25 22 20 18 16 15 14 13 12 10
17 17 17 17 16 16 16 16 16 16 16 15 14 14 14 15 16 17 18 19 20 22 22 23 24 26 28 30 31 30 29 26 23 19 17 16 14 12 11 11 10 9 8 7
17 16 16 15 15 14 14 13 13 13 12 11 11 11 12 14 15 15 17 19 19 20 21 21 22 24 26 27 27 26 24 20 17 14 12 11 10 9 8 7 7 7 7 6
16 15 15 14 13 12 11 11 11 10 9 8 9 10 12 13 14 15 17 17 17 18 19 20 21 22 23 24 24 23 20 16 14 12 11 9 8 8 7 7 7 6 7 7
15 14 13 13 11 10 9 9 8 7 6 7 8 10 11 13 14 15 15 16 16 17 18 19 19 20 21 21 21 20 18 16 14 13 11 10 9 8 8 8 9 9 9 10
14 13 12 11 9 8 7 7 6 5 5 6 7 9 11 13 14 14 14 15 16 17 17 18 18 18 19 19 19 19 18 17 16 14 13 12 11 11 10 10 11 12 12 12
13 12 10 9 7 6 5 5 4 4 4 5 7 9 11 12 13 13 14 15 15 16 17 18 18 18 17 17 18 18 17 17 16 15 14 13 12 12 12 12 13 13 13 13
12 11 10 8 6 5 4 3 3 3 4 6 8 9 11 12 13 13 14 14 15 16 17 18 19 18 17 17 16 15 15 15 14 14 13 13 13 12 13 13 13 13 14 13
11 10 9 7 5 4 4 3 1 2 3 6 7 9 11 12 12 13 14 15 16 17 18 19 18 18 17 17 16 15 14 13 12 12 12 12 12 12 12 12 13 13 13 13
10 9 7 6 5 4 3 2 1 1 3 5 7 8 10 12 13 14 14 15 17 18 18 19 18 18 18 18 16 14 13 12 11 10 10 10 10 11 11 12 12 12 12 12
10 8 7 5 4 4 3 2 1 0 2 4 6 8 10 11 13 14 15 16 17 18 19 19 19 18 19 18 17 15 13 11 10 10 9 9 9 9 10 10 11 11 11 11
10 8 6 5 4 4 4 3 2 1 1 3 5 7 9 10 12 14 16 17 17 19 20 20 20 19 19 18 17 16 14 12 10 10 9 9 9 9 9 10 10 10 11 11
10 8 7 6 5 5 5 4 3 2 1 1 3 6 7 9 12 14 16 17 18 19 20 20 20 20 19 18 18 18 16 14 12 11 11 10 10 10 10 10 10 10 10 10
10 9 8 7 6 6 6 5 5 4 2 0 2 4 6 8 11 13 15 17 18 19 19 20 21 21 20 21 20 19 17 16 14 13 13 13 12 12 11 11 11 11 11 11
11 9 8 8 7 7 7 7 6 6 4 2 0 2 5 7 9 11 13 15 17 17 18 19 20 21 22 23 22 20 19 18 17 16 15 15 15 14 14 13 13 13 13 13
11 10 9 8 8 8 8 8 8 7 6 4 2 1 3 5 7 9 12 14 16 17 18 19 19 20 21 22 22 22 21 20 19 19 18 17 17 16 16 16 15 15 15 15
Wind_Direction
252 268 265 252 248 241 239 238 244 249 248 253 255 260 262 262 257 257 258 260 261 262 263 265 266 266 267 269 270 272 273 273 274 275 275 277 278 279 280 282 284 286 287 288
255 265 272 274 269 260 251 251 249 250 254 255 260 263 265 268 266 265 264 265 266 266 266 267 267 267 269 272 273 273 272 274 275 276 277 278 279 281 283 285 287 288 289 290
261 256 257 260 260 260 260 262 261 259 259 260 265 269 272 273 272 275 277 277 274 272 271 272 272 273 275 274 274 274 275 276 278 280 281 282 285 287 287 288 289 289 289 290
268 265 261 257 261 262 265 267 267 265 263 264 266 269 270 273 275 278 278 277 279 280 279 278 279 279 277 276 277 281 285 288 289 291 291 292 292 291 290 290 290 290 291 291
273 261 261 263 265 266 268 271 271 269 268 268 269 269 271 275 276 280 281 281 281 281 280 281 283 284 285 287 289 291 294 294 294 294 294 293 293 292 292 292 292 291 292 292
285 273 261 266 269 272 272 273 275 274 274 274 274 275 276 278 280 282 283 284 283 284 284 286 288 289 291 293 295 296 296 296 295 295 295 295 294 294 294 293 293 293 293 293
297 286 278 278 276 276 277 282 281 278 277 277 279 279 280 281 282 284 285 286 287 289 290 291 293 296 297 298 298 298 298 298 298 297 297 296 296 296 296 296 295 295 294 294
302 296 289 288 282 279 280 281 283 283 283 284 284 285 284 285 287 289 290 292 294 295 296 297 298 299 300 300 301 301 301 301 300 300 299 298 297 297 297 296 296 295 295 295
303 299 297 293 289 287 287 287 287 287 289 290 290 289 290 291 291 293 294 295 297 299 300 301 303 304 305 306 306 306 305 304 304 303 302 301 299 298 298 297 296 296 296 295
305 303 301 297 293 292 292 292 293 293 295 294 295 296 296 296 297 297 298 300 301 303 304 306 308 309 310 310 311 310 309 308 307 306 305 304 302 301 300 299 298 297 297 297
308 307 305 302 298 296 296 296 298 299 299 300 301 301 301 302 303 303 304 305 306 308 310 312 313 314 314 315 315 314 313 311 309 308 307 306 305 304 303 303 303 303 303 303
311 310 306 304 302 301 301 301 300 302 302 300 301 303 306 308 308 309 310 311 314 316 317 318 319 319 319 319 320 320 318 317 315 313 311 311 310 309 308 310 312 314 317 319
313 309 305 303 301 301 302 302 302 304 306 308 310 313 314 315 315 316 318 321 322 323 324 324 324 325 326 327 327 327 326 325 324 322 321 322 323 323 322 324 329 335 341 351
315 313 310 308 306 303 303 304 307 307 308 311 315 319 321 323 325 326 327 327 328 328 328 329 331 332 335 336 337 338 338 338 338 338 335 336 341 344 347 350 355 1 10 24
319 317 315 313 311 308 308 309 311 312 313 318 323 326 330 332 333 333 334 334 334 334 335 336 338 341 344 346 348 351 352 355 358 0 3 7 6 8 16 26 30 33 42 54
321 318 316 316 313 311 311 312 315 315 319 328 332 336 339 339 340 340 340 340 341 342 343 344 347 351 355 358 2 4 8 13 17 20 24 27 30 35 41 46 49 55 62 70
323 320 319 320 316 311 312 316 316 318 328 335 341 345 347 348 348 348 348 350 352 353 353 355 357 0 4 8 13 17 21 26 29 32 36 39 43 48 53 57 61 66 71 75
323 320 319 320 315 311 312 315 316 325 341 349 353 354 355 357 359 360 1 4 5 6 7 8 8 9 11 15 19 21 25 30 34 39 43 46 51 56 61 65 68 70 72 74
320 316 314 314 310 309 309 308 312 336 357 0 1 2 5 8 10 11 12 13 14 14 15 14 14 14 15 17 18 19 25 30 33 38 44 49 55 61 66 68 69 69 70 73
315 312 311 309 304 301 299 295 304 354 10 10 9 11 12 15 16 16 16 17 17 18 17 14 13 14 16 19 17 18 23 27 30 36 44 51 57 63 66 67 68 69 69 71
309 306 306 301 292 285 279 269 263 3 15 16 18 18 19 21 21 21 20 19 19 19 17 14 14 17 20 20 17 19 22 26 30 36 44 52 58 63 66 67 68 69 70 72
302 297 297 293 283 268 256 243 227 318 20 24 24 23 25 26 25 23 22 22 21 20 18 17 19 21 22 19 18 22 24 27 32 38 45 54 62 65 66 67 68 70 71 71
296 287 284 283 273 256 247 235 217 200 38 30 27 28 30 29 26 24 25 24 23 22 21 20 22 24 23 20 22 27 30 34 40 46 53 61 66 70 70 69 69 71 71 72
287 277 272 269 262 252 242 230 216 204 187 31 30 30 30 28 26 25 26 26 26 25 24 25 27 28 26 26 31 34 38 44 50 56 61 66 70 74 74 72 71 71 73 74
277 268 262 258 254 247 238 228 217 211 209 218 29 30 30 27 25 25 27 27 28 27 27 29 33 35 35 36 39 41 45 51 56 63 67 70 73 74 75 75 74 73 74 75
267 259 254 250 246 241 235 228 220 216 215 219 334 24 25 24 24 26 27 28 29 29 30 33 37 39 41 42 44 47 50 54 60 65 69 72 73 73 73 74 74 75 75 76
257 251 247 243 240 237 234 230 223 219 219 223 232 338 14 21 24 26 27 28 29 30 32 36 40 43 45 46 48 50 53 58 62 66 69 71 72 72 73 74 75 76 77 77
Height
5759 5758 5759 5760 5762 5763 5764 5764 5765 5764 5764 5764 5764 5763 5760 5759 5758 5758 5758 5758 5759 5759 5759 5758 5757 5756 5754 5753 5751 5749 5747 5745 5742 5739 5736 5734 5731 5728 5724 5721 5718 5715 5711 5707
5757 5757 5757 5757 5757 5757 5757 5757 5757 5757 5757 5756 5755 5754 5752 5751 5750 5750 5750 5750 5749 5749 5748 5747 5745 5744 5742 5741 5738 5736 5733 5731 5728 5725 5723 5720 5717 5714 5711 5707 5704 5701 5697 5693
5753 5753 5753 5753 5750 5751 5750 5749 5750 5751 5751 5749 5747 5746 5745 5743 5743 5743 5743 5742 5740 5738 5737 5736 5734 5732 5730 5728 5725 5723 5720 5717 5715 5712 5709 5706 5703 5700 5697 5693 5690 5686 5683 5679
5748 5749 5748 5747 5745 5745 5744 5743 5742 5743 5742 5741 5740 5739 5737 5736 5735 5734 5734 5733 5731 5729 5728 5726 5724 5722 5720 5717 5714 5711 5709 5706 5703 5700 5696 5693 5690 5687 5683 5679 5676 5672 5668 5665
5743 5743 5742 5740 5738 5738 5737 5735 5735 5734 5734 5733 5732 5730 5729 5728 5727 5726 5725 5724 5723 5721 5719 5717 5715 5712 5710 5707 5704 5700 5697 5694 5691 5687 5684 5680 5676 5673 5669 5665 5661 5658 5654 5651
5738 5737 5736 5735 5732 5731 5732 5728 5728 5727 5726 5725 5724 5723 5722 5721 5720 5719 5718 5716 5715 5713 5711 5709 5706 5703 5700 5697 5694 5690 5687 5683 5679 5675 5671 5666 5663 5659 5655 5651 5647 5644 5641 5637
5733 5732 5729 5728 5727 5727 5727 5725 5722 5720 5719 5719 5718 5717 5716 5714 5713 5712 5711 5709 5708 5705 5703 5701 5697 5694 5691 5687 5684 5679 5675 5671 5666 5662 5658 5654 5649 5645 5642 5638 5634 5631 5628 5625
5729 5727 5727 5724 5722 5722 5721 5718 5716 5715 5714 5713 5712 5711 5710 5709 5708 5706 5704 5702 5700 5698 5695 5692 5689 5685 5682 5678 5673 5669 5664 5659 5655 5650 5646 5642 5637 5633 5629 5626 5623 5619 5617 5614
5726 5725 5721 5719 5718 5716 5715 5713 5712 5711 5710 5709 5708 5707 5705 5704 5703 5701 5699 5696 5694 5691 5688 5684 5680 5676 5673 5668 5663 5658 5654 5649 5644 5639 5634 5630 5626 5622 5618 5615 5612 5610 5607 5604
5721 5719 5717 5715 5714 5712 5711 5709 5708 5707 5705 5704 5703 5702 5700 5699 5697 5695 5693 5690 5687 5684 5681 5677 5673 5669 5664 5660 5654 5649 5644 5638 5633 5628 5623 5619 5615 5612 5609 5606 5603 5601 5599 5597
5718 5716 5713 5711 5710 5708 5707 5706 5704 5703 5701 5700 5699 5697 5695 5694 5692 5690 5687 5685 5682 5679 5675 5671 5667 5663 5658 5653 5648 5642 5635 5629 5624 5619 5614 5610 5607 5603 5601 5599 5597 5595 5593 5591
5715 5713 5710 5709 5707 5705 5704 5702 5701 5699 5698 5696 5695 5693 5691 5690 5688 5685 5683 5680 5677 5674 5670 5666 5662 5658 5653 5647 5641 5635 5628 5622 5616 5612 5608 5604 5602 5599 5596 5595 5593 5591 5590 5588
5712 5709 5707 5705 5704 5702 5700 5699 5697 5696 5695 5693 5691 5690 5688 5686 5684 5682 5679 5676 5673 5670 5666 5662 5658 5653 5648 5642 5635 5628 5622 5616 5611 5607 5603 5601 5599 5597 5595 5593 5591 5590 5589 5588
5709 5706 5704 5702 5701 5699 5697 5696 5695 5693 5692 5691 5689 5688 5686 5684 5682 5679 5677 5673 5670 5667 5663 5659 5655 5650 5644 5638 5631 5624 5618 5613 5608 5605 5602 5600 5597 5596 5594 5593 5592 5590 5589 5588
5706 5704 5702 5700 5698 5697 5695 5694 5693 5692 5690 5689 5688 5687 5685 5683 5680 5677 5675 5671 5668 5665 5661 5656 5652 5647 5641 5635 5629 5623 5617 5612 5608 5605 5602 5600 5598 5597 5595 5594 5593 5592 5591 5590
5704 5701 5700 5698 5696 5695 5694 5693 5692 5691 5690 5689 5688 5686 5684 5682 5679 5676 5673 5670 5666 5663 5659 5655 5650 5645 5640 5634 5629 5623 5618 5613 5610 5607 5604 5602 5600 5599 5598 5596 5595 5594 5594 5593
5702 5700 5698 5696 5695 5694 5693 5692 5691 5690 5690 5689 5687 5686 5683 5681 5678 5675 5672 5669 5665 5662 5658 5654 5649 5644 5640 5635 5630 5625 5621 5616 5613 5610 5607 5605 5604 5602 5601 5600 5599 5598 5597 5597
5700 5699 5697 5695 5694 5693 5692 5692 5691 5691 5690 5689 5687 5686 5684 5681 5678 5675 5672 5669 5665 5662 5658 5654 5649 5645 5641 5637 5632 5628 5624 5620 5617 5614 5612 5609 5608 5606 5605 5604 5603 5602 5602 5601
5699 5697 5696 5695 5694 5693 5692 5692 5691 5691 5690 5689 5688 5686 5684 5682 5679 5676 5673 5670 5666 5663 5659 5655 5651 5647 5642 5638 5634 5631 5627 5624 5621 5618 5616 5614 5612 5611 5610 5609 5608 5607 5606 5606
5697 5696 5695 5694 5693 5693 5692 5692 5692 5691 5691 5690 5689 5687 5685 5683 5680 5677 5674 5671 5668 5664 5660 5656 5652 5648 5644 5640 5636 5633 5629 5627 5624 5622 5620 5618 5616 5615 5614 5613 5612 5612 5611 5610
5696 5695 5694 5693 5693 5693 5692 5692 5692 5692 5691 5690 5689 5688 5686 5684 5681 5679 5676 5673 5669 5666 5662 5658 5654 5649 5645 5641 5638 5634 5631 5628 5626 5624 5622 5621 5620 5619 5618 5617 5617 5616 5615 5615
5694 5693 5693 5693 5693 5692 5692 5692 5692 5692 5692 5691 5690 5689 5687 5685 5683 5681 5678 5675 5671 5668 5664 5660 5655 5651 5647 5643 5639 5635 5632 5630 5628 5626 5625 5623 5623 5622 5622 5621 5620 5620 5619 5619
5692 5692 5692 5692 5692 5692 5692 5692 5692 5692 5692 5692 5692 5690 5689 5687 5685 5683 5680 5677 5673 5670 5666 5661 5657 5653 5649 5645 5641 5637 5634 5632 5630 5628 5627 5626 5625 5625 5625 5624 5624 5623 5623 5622
5691 5691 5691 5691 5691 5692 5692 5692 5692 5693 5693 5693 5692 5692 5691 5689 5687 5685 5682 5679 5676 5672 5668 5664 5660 5655 5652 5648 5643 5639 5637 5634 5633 5631 5630 5629 5628 5628 5628 5628 5627 5627 5626 5626
5688 5689 5689 5690 5690 5691 5691 5692 5692 5693 5693 5693 5693 5693 5692 5691 5689 5687 5684 5682 5678 5675 5672 5667 5663 5659 5655 5651 5647 5643 5641 5639 5637 5635 5634 5633 5633 5632 5632 5632 5631 5631 5630 5630
5686 5687 5687 5688 5689 5689 5690 5691 5692 5693 5693 5694 5694 5694 5693 5692 5691 5689 5687 5684 5681 5679 5675 5671 5667 5664 5660 5656 5652 5649 5646 5644 5642 5640 5639 5638 5638 5637 5636 5636 5635 5635 5634 5634
5683 5684 5685 5686 5687 5688 5689 5690 5691 5692 5693 5694 5694 5694 5694 5693 5692 5691 5689 5687 5685 5682 5678 5675 5672 5668 5665 5662 5659 5656 5653 5651 5648 5647 5646 5645 5644 5643 5642 5641 5640 5640 5639 5638